Showing default

ZY 3 04, 67131

Orbit data source: Space-Track

ZY 3 04, 67131 is a Chinese payload satellite in SSO that was launched on Tue, 16 Dec 2025 UTC via a CHANG ZHENG 4B launch vehicle from the Taiyaun Space Center, China (TSC). Payload-class satellites include a variety of spacecraft equipped with specific instruments for various scientific and technological missions. These include communications satellites like Starlink; space stations such as the ISS; scientific satellites like the Hubble; Earth observation satellites from companies like Planet Labs, Umbra, and HawkEye 360; GPS; miniature CubeSats for education and research; and military/defense satellites.

Loading next visibility...
Identifier
67131, 2025-300A
Orbit
SSO
Country
Flag of CNCN / PRC
Related business
Manufacturer
CAST
Mission
Operational Civil Imaging
Bus & Motor
ZY, AOCS 20N
Mass
2,400 kg wet, ~2,200 kg dry
Launch date (UTC)
2025-12-16 (6 months ago)
Launch vehicle
CHANG ZHENG 4B
Launch site
Taiyaun Space Center, China (TSC)
Object type
Payload
Rocket body
Debris
Shape & HBR
Box + 2 Pan, 14.5 m
Radar Cross Section
10.304 m², Large (>1 m²)

Expand to show TLE details & history
Last TLE update: 11 hours ago

TLE from 11 hours ago
0 ZY 3 04
1 67131U 25300A   26171.45252889  .00003208  00000-0  14629-3 0  9996
2 67131  97.4730 249.3314 0006054 305.4427  54.6243 15.21357084 28332
Epoch: 2026-06-20T10:51Z
TLE epoch observation values (Epoch: 2026-06-20T10:51:38.496Z)
Latitude
-0°
Longitude
177.75405°
Altitude
502.426 km
Speed
7.614 km/s
True Right ascension
16h 37m 19s
True Declination
0° 00' 00"
Sunlit
Object was in full shadow at epoch
Visualization orbit readout
Latitude
Unknown
Longitude
Unknown
Altitude
Unknown
Speed
Unknown
Apparent Right ascension
Unknown
Apparent Declination
Unknown
Sunlit
N/A
Visualization observer readout
Local Sidereal Time
08:42:01
Azimuth
Unknown
Elevation
Unknown
Doppler factor
Unknown
Orbital elements
Apogee altitude
502.876 km
Perigee altitude
494.55 km
Semi-major axis
6,876.85 km
Eccentricity
0.00061
Inclination
97.473°
RAAN
249.3314°
Arg. of periapsis
305.4427°
True anomaly
54.68089°
Mean anomaly
54.6243°
Eccentric anomaly
54.65259°
Mean motion
3.80591 °/min
Orbital period
94.59 mins
BSTAR
0.00014629
Loading maneuver chart data...
Computing Atmospheric mass density...
Loading historical data...
Loading historical data...
Loading historical data...
Loading historical data...
Loading historical data...
Loading historical data...
Loading historical data...
Other satellites on launch #300 in the year 2025 (2025-12-16 UTC)

Documentation

Showing up to 5 results
|